sat.trackr.live / text

‹ back to catalog

STARLINK-31870

NORAD 59787 · 2024-093F

PAYLOAD ACTIVE UNKNOWN

§ Identity

Operator
Country
US
Launch date
2024-05-18
Launch site
AFETR
Launch vehicle
Mass (kg)
RCS (m²)

Purposes: comms

External: N2YO · Heavens-Above · Gunter

§ Orbital elements

Epoch: 2026-09-21T11:33:01.668384Z

Period
94.27 min
Inclination
43.0033°
Eccentricity
0.0000740
Mean motion
15.27576369 rev/d
Perigee alt
482.6 km
Apogee alt
483.6 km
Semi-major
6,861.2 km
B*
-1.3537e-5
RAAN
182.7890°
Arg perigee
271.4233°
Mean anomaly
88.6534°
Rev number
13,264

§ Raw data

STARLINK-318701 59787U 24093F   26264.48126931 -.00000634  00000+0 -13537-4 0  99952 59787  43.0033 182.7890 0000740 271.4233  88.6534 15.27576369132640

JSON: /api/v1/satellites/59787 · /tle

For live sub-satellite position, see the globe view (requires WebGL).

§ Visibility from observer

Set your observer location to see the next 7 days of passes ≥ 10°. The values pass through the URL so the page stays shareable.

No JS? Fill the form by hand. The geolocation button needs JavaScript.